Tracking 19795 objects as of 19-Jul-2019
HD Live streaming from Space Station
objects crossing your sky now

CZ-3B R/B

Track CZ-3B R/B now!


NORAD ID: 25405
Int'l Code: 1998-044B
Perigee: 621.0 km
Apogee: 35,748.8 km
Inclination: 18.3 °
Period: 638.3 minutes
Semi major axis: 24555 km
RCS: 22.0892 m2 (large)
Launch date: July 18, 1998
Source: People's Republic of China (PRC)
Launch site: Xichang Space Center, China (XSC)

Note: This is a ROCKET BODY
aabbcc
Your satellite tracking list
Your tracking list is empty




NASA's NSSDC Master Catalog

Two Line Element Set (TLE):
1 25405U 98044B   19199.47819421 -.00000027 +00000-0 +48664-3 0  9997
2 25405 018.2916 188.9598 7152618 212.5069 055.2030 02.25615236173040
Source of the keplerian elements: AFSPC